FIN5LA EFHK-ESSA

Flight info

Callsign FIN5LA
Flight time 0h 44m
Altitude 28000
Route ADIVO Y365 POGOK DCT RUNGA N872 XILAN
Aircraft A321/M-SADE1E2E3FGIJ1M3RWXYZ/LB1

Departure

Time 2026-04-23 17:27
Airport Helsinki Vantaa Airport (EFHK)

Arrival

Time 2026-04-23 18:12
Airport Stockholm-Arlanda Airport (ESSA)
Time Latitude Longitude Altitude Speed Heading
2026-04-23 17:01 60.31636 24.97253 167 ft 0 kts 243°
2026-04-23 17:16 60.31636 24.97254 166 ft 1 kts 243°
2026-04-23 17:16 60.31647 24.97297 166 ft 4 kts 247°
2026-04-23 17:16 60.31652 24.97345 166 ft 4 kts 285°
2026-04-23 17:16 60.31639 24.97385 166 ft 4 kts 330°
2026-04-23 17:17 60.31635 24.97390 166 ft 0 kts 333°
2026-04-23 17:19 60.31637 24.97376 166 ft 1 kts 282°
2026-04-23 17:19 60.31627 24.97374 166 ft 3 kts 168°
2026-04-23 17:20 60.31641 24.97487 161 ft 15 kts 47°
2026-04-23 17:20 60.31833 24.97335 162 ft 16 kts 333°
2026-04-23 17:21 60.32031 24.97130 165 ft 17 kts 333°
2026-04-23 17:21 60.32135 24.97010 166 ft 16 kts 309°
2026-04-23 17:21 60.32007 24.96658 167 ft 18 kts 228°
2026-04-23 17:22 60.31922 24.96471 167 ft 19 kts 227°
2026-04-23 17:22 60.31897 24.96085 167 ft 15 kts 317°
2026-04-23 17:23 60.31860 24.95808 169 ft 13 kts 228°
2026-04-23 17:23 60.31797 24.95668 170 ft 14 kts 227°
2026-04-23 17:23 60.31652 24.95348 170 ft 17 kts 227°
2026-04-23 17:24 60.31564 24.95157 170 ft 19 kts 226°
2026-04-23 17:24 60.31473 24.94954 168 ft 18 kts 226°
2026-04-23 17:24 60.31469 24.94593 164 ft 15 kts 318°
2026-04-23 17:25 60.31540 24.94545 164 ft 0 kts 44°
2026-04-23 17:27 60.31766 24.95038 174 ft 84 kts 47°
2026-04-23 17:27 60.32314 24.96244 178 ft 146 kts 47°
2026-04-23 17:27 60.33050 24.97850 724 ft 154 kts 44°
2026-04-23 17:27 60.33753 24.99450 1588 ft 152 kts 42°
2026-04-23 17:28 60.34448 25.01035 2269 ft 150 kts 40°
2026-04-23 17:28 60.35178 25.02640 2660 ft 164 kts 40°
2026-04-23 17:28 60.36014 25.04451 2912 ft 188 kts 40°
2026-04-23 17:28 60.36957 25.06500 3129 ft 211 kts 41°
2026-04-23 17:29 60.37991 25.08757 3644 ft 224 kts 41°
2026-04-23 17:29 60.39057 25.11074 4466 ft 225 kts 37°
2026-04-23 17:29 60.41909 25.12789 6000 ft 226 kts 348°
2026-04-23 17:30 60.42884 25.12012 6283 ft 240 kts 328°
2026-04-23 17:30 60.44148 25.04404 8000 ft 278 kts 267°
2026-04-23 17:30 60.43766 25.00536 8819 ft 282 kts 266°
2026-04-23 17:31 60.43488 24.97959 9360 ft 284 kts 266°
2026-04-23 17:31 60.42907 24.92713 10141 ft 298 kts 266°
2026-04-23 17:31 60.42602 24.89875 10280 ft 313 kts 266°
2026-04-23 17:31 60.41968 24.83905 10606 ft 339 kts 266°
2026-04-23 17:32 60.41457 24.79186 11206 ft 345 kts 266°
2026-04-23 17:32 60.41103 24.75957 11645 ft 348 kts 266°
2026-04-23 17:32 60.40572 24.71153 12306 ft 352 kts 266°
2026-04-23 17:32 60.40040 24.66356 12976 ft 356 kts 266°
2026-04-23 17:33 60.39496 24.61423 13669 ft 360 kts 266°
2026-04-23 17:33 60.38950 24.56461 14273 ft 363 kts 267°
2026-04-23 17:33 60.38399 24.51440 14860 ft 367 kts 267°
2026-04-23 17:33 60.37847 24.46392 15474 ft 370 kts 267°
2026-04-23 17:34 60.37287 24.41285 16081 ft 373 kts 268°
2026-04-23 17:34 60.36715 24.36141 16670 ft 377 kts 268°
2026-04-23 17:34 60.35547 24.25734 17889 ft 383 kts 268°
2026-04-23 17:35 60.34956 24.20463 18443 ft 386 kts 268°
2026-04-23 17:35 60.33759 24.09786 19482 ft 393 kts 268°
2026-04-23 17:35 60.33144 24.04392 19997 ft 396 kts 268°
2026-04-23 17:36 60.32521 23.98957 20512 ft 399 kts 268°
2026-04-23 17:36 60.31894 23.93470 21033 ft 402 kts 268°
2026-04-23 17:36 60.31260 23.87952 21549 ft 406 kts 268°
2026-04-23 17:36 60.30619 23.82398 22031 ft 409 kts 268°
2026-04-23 17:37 60.29968 23.76796 22518 ft 412 kts 268°
2026-04-23 17:37 60.29310 23.71158 22989 ft 415 kts 267°
2026-04-23 17:37 60.27971 23.59759 23826 ft 421 kts 267°
2026-04-23 17:38 60.27291 23.54002 24203 ft 423 kts 267°
2026-04-23 17:38 60.26604 23.48212 24578 ft 426 kts 267°
2026-04-23 17:38 60.25913 23.42392 24950 ft 429 kts 267°
2026-04-23 17:38 60.25215 23.36525 25316 ft 431 kts 267°
2026-04-23 17:39 60.24510 23.30624 25680 ft 434 kts 267°
2026-04-23 17:39 60.23800 23.24703 26048 ft 437 kts 267°
2026-04-23 17:39 60.23079 23.18739 26414 ft 439 kts 267°
2026-04-23 17:39 60.22362 23.12823 26766 ft 442 kts 267°
2026-04-23 17:40 60.21629 23.06793 27112 ft 445 kts 267°
2026-04-23 17:40 60.20889 23.00736 27438 ft 447 kts 267°
2026-04-23 17:40 60.20141 22.94646 27782 ft 450 kts 266°
2026-04-23 17:40 60.19378 22.88526 28122 ft 453 kts 266°
2026-04-23 17:41 60.18610 22.82384 28445 ft 455 kts 266°
2026-04-23 17:41 60.17060 22.69987 29088 ft 460 kts 266°
2026-04-23 17:41 60.16278 22.63749 29408 ft 462 kts 266°
2026-04-23 17:42 60.14691 22.51178 29898 ft 463 kts 266°
2026-04-23 17:42 60.13899 22.45012 29921 ft 450 kts 266°
2026-04-23 17:43 60.12344 22.32942 29924 ft 444 kts 266°
2026-04-23 17:43 60.10814 22.20932 29928 ft 444 kts 266°
2026-04-23 17:44 60.09274 22.08961 29930 ft 444 kts 266°
2026-04-23 17:44 60.06923 21.91000 29930 ft 444 kts 266°
2026-04-23 17:45 60.04537 21.73067 29935 ft 445 kts 265°
2026-04-23 17:46 60.02128 21.55151 29934 ft 445 kts 265°
2026-04-23 17:46 60.00506 21.43204 29945 ft 445 kts 265°
2026-04-23 17:47 59.98886 21.31341 29946 ft 445 kts 265°
2026-04-23 17:48 59.96433 21.13448 29949 ft 445 kts 264°
2026-04-23 17:48 59.94773 21.01552 29654 ft 440 kts 264°
2026-04-23 17:48 59.93938 20.95631 29367 ft 436 kts 264°
2026-04-23 17:49 59.93121 20.89824 29083 ft 434 kts 264°
2026-04-23 17:49 59.92305 20.84040 28801 ft 432 kts 264°
2026-04-23 17:49 59.91489 20.78286 28527 ft 430 kts 264°
2026-04-23 17:49 59.90675 20.72569 28253 ft 428 kts 264°
2026-04-23 17:50 59.89860 20.66874 27980 ft 426 kts 264°
2026-04-23 17:50 59.88236 20.55552 27443 ft 423 kts 264°
2026-04-23 17:50 59.87425 20.49947 27179 ft 421 kts 264°
2026-04-23 17:51 59.86619 20.44386 26914 ft 419 kts 264°
2026-04-23 17:51 59.85807 20.38781 26659 ft 417 kts 263°
2026-04-23 17:51 59.84201 20.27802 25775 ft 410 kts 263°
2026-04-23 17:52 59.83404 20.22385 25314 ft 408 kts 263°
2026-04-23 17:52 59.81817 20.11610 24423 ft 404 kts 263°
2026-04-23 17:52 59.81027 20.06275 23984 ft 403 kts 263°
2026-04-23 17:53 59.79441 19.95629 23073 ft 399 kts 263°
2026-04-23 17:53 59.78652 19.90374 22644 ft 395 kts 263°
2026-04-23 17:53 59.77869 19.85176 22204 ft 391 kts 263°
2026-04-23 17:54 59.77093 19.80029 21782 ft 388 kts 263°
2026-04-23 17:54 59.76322 19.74913 21337 ft 385 kts 263°
2026-04-23 17:54 59.74798 19.64828 20430 ft 379 kts 262°
2026-04-23 17:55 59.73284 19.54888 19540 ft 374 kts 262°
2026-04-23 17:55 59.72530 19.49976 19085 ft 372 kts 262°
2026-04-23 17:55 59.71779 19.45090 18620 ft 370 kts 261°
2026-04-23 17:56 59.71027 19.40208 18145 ft 369 kts 261°
2026-04-23 17:56 59.69541 19.30571 17195 ft 363 kts 261°
2026-04-23 17:56 59.68656 19.25884 16753 ft 368 kts 248°
2026-04-23 17:57 59.67305 19.21566 16323 ft 369 kts 243°
2026-04-23 17:57 59.65897 19.17327 15893 ft 366 kts 243°
2026-04-23 17:57 59.63133 19.08987 15068 ft 359 kts 243°
2026-04-23 17:58 59.61776 19.04873 14661 ft 355 kts 243°
2026-04-23 17:58 59.60441 19.00808 14257 ft 351 kts 243°
2026-04-23 17:58 59.59121 18.96771 13860 ft 348 kts 243°
2026-04-23 17:58 59.57819 18.92778 13415 ft 345 kts 243°
2026-04-23 17:59 59.56528 18.88808 12953 ft 342 kts 243°
2026-04-23 17:59 59.55248 18.84862 12491 ft 339 kts 243°
2026-04-23 17:59 59.53987 18.80958 12039 ft 337 kts 243°
2026-04-23 17:59 59.52736 18.77068 11599 ft 335 kts 243°
2026-04-23 18:00 59.51495 18.73205 11239 ft 330 kts 243°
2026-04-23 18:00 59.50291 18.69457 11107 ft 318 kts 243°
2026-04-23 18:00 59.49122 18.65845 10982 ft 307 kts 243°
2026-04-23 18:00 59.47990 18.62370 10852 ft 296 kts 243°
2026-04-23 18:01 59.46890 18.59013 10727 ft 287 kts 243°
2026-04-23 18:01 59.45814 18.55752 10540 ft 280 kts 243°
2026-04-23 18:01 59.45102 18.53596 10363 ft 278 kts 243°
2026-04-23 18:01 59.44253 18.50257 10058 ft 269 kts 256°
2026-04-23 18:02 59.43839 18.47973 9847 ft 268 kts 257°
2026-04-23 18:02 59.43056 18.43342 9411 ft 265 kts 258°
2026-04-23 18:02 59.42482 18.39917 9104 ft 263 kts 258°
2026-04-23 18:02 59.41912 18.36516 8785 ft 261 kts 258°
2026-04-23 18:03 59.41346 18.33142 8491 ft 259 kts 258°
2026-04-23 18:03 59.40780 18.29769 8180 ft 256 kts 258°
2026-04-23 18:03 59.40217 18.26431 7789 ft 255 kts 258°
2026-04-23 18:03 59.39663 18.23148 7436 ft 252 kts 258°
2026-04-23 18:04 59.39116 18.19899 7079 ft 249 kts 258°
2026-04-23 18:04 59.38755 18.17758 6839 ft 247 kts 258°
2026-04-23 18:04 59.38218 18.14567 6427 ft 245 kts 258°
2026-04-23 18:04 59.37691 18.11408 5949 ft 241 kts 259°
2026-04-23 18:05 59.37528 18.08232 5421 ft 231 kts 279°
2026-04-23 18:05 59.37703 18.05099 4949 ft 232 kts 282°
2026-04-23 18:05 59.37926 18.01980 4622 ft 231 kts 283°
2026-04-23 18:05 59.38154 17.98863 4269 ft 230 kts 283°
2026-04-23 18:06 59.38387 17.95784 4046 ft 226 kts 283°
2026-04-23 18:06 59.38629 17.92845 4045 ft 209 kts 289°
2026-04-23 18:06 59.39325 17.90480 4036 ft 194 kts 315°
2026-04-23 18:06 59.40374 17.88868 4034 ft 191 kts 332°
2026-04-23 18:07 59.41625 17.88006 4036 ft 192 kts 349°
2026-04-23 18:07 59.42961 17.87986 4001 ft 194 kts
2026-04-23 18:07 59.44292 17.88457 3810 ft 194 kts
2026-04-23 18:07 59.45604 17.88935 3567 ft 188 kts
2026-04-23 18:08 59.46873 17.89392 3326 ft 183 kts
2026-04-23 18:08 59.48117 17.89839 3083 ft 180 kts
2026-04-23 18:08 59.49337 17.90277 2846 ft 175 kts
2026-04-23 18:08 59.50523 17.90703 2608 ft 173 kts
2026-04-23 18:09 59.51705 17.91128 2339 ft 172 kts
2026-04-23 18:09 59.52884 17.91552 2100 ft 171 kts
2026-04-23 18:09 59.54013 17.91959 1864 ft 159 kts
2026-04-23 18:09 59.55063 17.92337 1686 ft 153 kts
2026-04-23 18:10 59.56117 17.92717 1521 ft 152 kts
2026-04-23 18:10 59.57110 17.93085 1269 ft 142 kts
2026-04-23 18:10 59.58080 17.93429 1079 ft 138 kts
2026-04-23 18:10 59.59011 17.93768 911 ft 138 kts
2026-04-23 18:11 59.59958 17.94107 711 ft 138 kts
2026-04-23 18:11 59.60910 17.94460 523 ft 140 kts
2026-04-23 18:11 59.61879 17.94817 334 ft 142 kts
2026-04-23 18:11 59.62850 17.95156 157 ft 142 kts
2026-04-23 18:12 59.63686 17.95453 116 ft 86 kts 11°
2026-04-23 18:12 59.64051 17.95561 113 ft 28 kts 351°
2026-04-23 18:12 59.64227 17.95463 109 ft 24 kts 340°
2026-04-23 18:12 59.64385 17.95353 105 ft 19 kts 341°
2026-04-23 18:13 59.64490 17.95339 105 ft 14 kts
2026-04-23 18:13 59.64546 17.95228 105 ft 14 kts 253°
2026-04-23 18:13 59.64492 17.95049 104 ft 16 kts 238°
2026-04-23 18:13 59.64429 17.94853 104 ft 18 kts 237°
2026-04-23 18:14 59.64359 17.94632 103 ft 20 kts 237°
2026-04-23 18:14 59.64278 17.94380 103 ft 24 kts 239°
2026-04-23 18:14 59.64189 17.94100 106 ft 22 kts 237°
2026-04-23 18:14 59.64111 17.93856 110 ft 20 kts 238°
2026-04-23 18:15 59.64046 17.93654 113 ft 15 kts 237°
2026-04-23 18:15 59.63997 17.93493 112 ft 12 kts 246°
2026-04-23 18:15 59.63989 17.93335 111 ft 11 kts 278°
2026-04-23 18:15 59.64017 17.93184 111 ft 12 kts 297°
2026-04-23 18:16 59.64057 17.93033 112 ft 12 kts 298°
2026-04-23 18:16 59.64099 17.92874 111 ft 14 kts 297°
2026-04-23 18:16 59.64145 17.92699 113 ft 15 kts 298°
2026-04-23 18:17 59.64240 17.92475 114 ft 9 kts 13°
2026-04-23 18:17 59.64269 17.92594 113 ft 12 kts 86°
2026-04-23 18:17 59.64308 17.92690 110 ft 9 kts 39°
2026-04-23 18:17 59.64352 17.92767 112 ft 5 kts 41°
2026-04-23 18:18 59.64367 17.92793 111 ft 2 kts 40°
2026-04-23 18:18 59.64371 17.92799 111 ft 0 kts 40°